Location: Cisewo
(53.3833°N, 14.9000°E)
Time: 05:42:40
(UTC+00:00)

NOAA 18 - Pass Details

Date: 23 September 2021
Orbit: 841 x 860 km, 99.0° (Epoch: 17 October)

Event Time Altitude Azimuth Distance (km) Brightness Sun altitude
Exits shadow 20:07:26 83° 157° (SSE) 859 5.0 -27.0°
Maximum altitude 20:07:40 89° 72° (ENE) 853 5.1 -27.0°
Drops below altitude 10° 20:13:12 10° 344° (NNW) 2,484 8.4 -27.6°
Sets 20:15:35 0° 344° (NNW) 3,427 9.3 -27.9°
